Regional Weather Roundup
Issued by NWS Charleston, SC

Home | Current Version | Previous Version | Text Only | Print | Product List | Glossary On
Versions: 1 2 3 4 5 6 7 8 9 10 11 12 13 14 15 16 17 18 19 20 21 22 23 24 25 26 27 28 29 30 31 32 33 34 35 36 37 38 39 40 41 42 43 44 45 46 47 48 49 50
000
ASUS42 KCHS 012027
RWRCHS

REGIONAL WEATHER ROUNDUP
NATIONAL WEATHER SERVICE CHARLESTON SC
400 PM EDT TUE SEP 01 2015

NOTE: "FAIR" INDICATES FEW OR NO CLOUDS BELOW 12,000 FEET WITH NO
SIGNIFICANT WEATHER AND/OR OBSTRUCTIONS TO VISIBILITY.

NOT ALL STATIONS ARE QUALITY CONTROLLED BY THE NATIONAL
WEATHER SERVICE. USE DATA WITH CAUTION...ESPECIALLY
DEWPOINT OBSERVATIONS.

SCZ027-030-031-034>040-042>050-012100-
...SOUTHEAST SOUTH CAROLINA...

CITY           SKY/WX    TMP DP  RH WIND       PRES   REMARKS
N CHARLESTON   PTSUNNY   89  71  55 SW8       30.06F HX  95
WATERFRONT PRK   N/A     84  74  72 S5        30.06S HX  91
MOUNT PLEASANT LGT RAIN  84  75  74 S6        30.07F HX  92
JOHNS ISLAND   MOCLDY    84  75  74 SE6       30.08S HX  92
PINOPOLIS        N/A     91  72  52 CALM      29.98F HX  98
MONCKS CORNER  FAIR      90  68  48 SW3       30.06F HX  93
SUMMERVILLE    MOCLDY    90  70  51 CALM      30.08S HX  95
BEAUFORT MCAS  PTSUNNY   87  71  58 CALM      30.08S HX  93
BEAUFORT ARPT  CLOUDY    82  75  78 CALM      30.07F
HILTON HEAD IS MOSUNNY   82  73  74 E5        30.11S
WALTERBORO     CLOUDY    90  68  48 CALM      30.07F HX  93
ALLENDALE      MOCLDY    88  68  51 N3        30.06F HX  91

...SOUTHERN MIDLANDS AND PEE DEE...

CITY           SKY/WX    TMP DP  RH WIND       PRES   REMARKS
GEORGETOWN     NOT AVBL
KINGSTREE      NOT AVBL
ORANGEBURG     MOSUNNY   90  67  46 W6        30.07F HX  93
BARNWELL       FAIR      90  70  51 CALM      30.08S HX  95
AIKEN          FAIR      88  61  40 W3        30.11F
MANNING        FAIR      88  63  42 S5        30.06F
COLUMBIA       PTSUNNY   92  63  38 VRB3      30.05F HX  93
SUMTER         MOSUNNY   91  66  43 VRB6      30.04F HX  94
FLORENCE       MOSUNNY   90  67  46 NW6       30.05F HX  93
MYRTLE BEACH   MOSUNNY   86  72  62 S12       30.08F HX  92
N MYRTLE BEACH SUNNY     85  74  69 S9        30.06F HX  92

$$

GAZ063-065-086>088-099>101-113>116-118-119-134>141-150-012100-
...SOUTHEAST GEORGIA...

CITY           SKY/WX    TMP DP  RH WIND       PRES   REMARKS
SAVANNAH ARPT  CLOUDY    86  73  65 SE12      30.07F HX  93
HUNTER AAF     PTSUNNY   85  79  81 SE8       30.05F HX  98
FORT STEWART   PTSUNNY   84  73  70 CALM      30.05F HX  91
STATESBORO     MOSUNNY   90  73  57 CALM      30.07F HX  97
SYLVANIA       PTCLDY    90  73  57 CALM      30.08F HX  97
CLAXTON        NOT AVBL

...CSRA...CENTRAL AND FAR SOUTHEAST GEORGIA...

CITY           SKY/WX    TMP DP  RH WIND       PRES   REMARKS
THOMSON        MOSUNNY   90  70  52 NE3       30.13S HX  95
AUGUSTA-BUSH   PTSUNNY   89  67  47 VRB3      30.06F HX  92
AUGUSTA-DANIEL PTSUNNY   88  67  49 VRB3      30.09F HX  91
SWAINSBORO     FAIR      91  61  35 CALM      30.08F HX  91
VIDALIA        CLOUDY    88  70  55 NE5       30.07F HX  92
EASTMAN        FAIR      92  67  44 CALM      30.09F HX  95
HAZLEHURST     CLOUDY    86  73  64 CALM      30.06F HX  93
ALMA           CLOUDY    83  74  74 SE6       30.07F
WAYCROSS       RAIN      80  79  96 E5        30.07S
JESUP          CLOUDY    86  79  79 SE3       30.07F HX  99
BAXLEY         CLOUDY    86  75  70 S5        30.07F HX  95
BRUNSWICK      CLOUDY    79  77  94 NE5       30.07F
SAINT SIMONS   CLOUDY    81  76  84 E6        30.07F

$$

SCZ027-028-034-036>038-045-046-048>050-GAZ119-141-012100-
...LAKE AND SUPPLEMENTAL COASTAL OBSERVATIONS...

STATION/POSITION TIME  TEMP    WIND        PRES    WAVE   SWELL
                       AIR SEA DIR/SP/G            HT/PER HT/PER/DIR
                 (UTC) (F)     (DEG/KT/KT) (MB)    (FT/S) (FT/S/D)
UPR LAKE MARION  NOT AVBL
WINYAH BAY       1945   84     160/  7     1018.0S
LAKE MURRAY      1900   89     190/  3/  4 1017.9F
ACE BASIN NERRS  NOT AVBL
FORT PULASKI     2000   82 83   80/  8/ 10 1018.9F
SAPELO ISLAND    2000   80      90/  3     1018.0F

$$

ANZ835-935-AMZ111-154-330-350-352-354-370-450-454-472-012100-
...C-MAN AND BUOY OBSERVATIONS...

STATION/POSITION TIME  TEMP    WIND        PRES    WAVE   SWELL
                       AIR SEA DIR/SP/G            HT/PER HT/PER/DIR
                 (UTC) (F)     (DEG/KT/KT) (MB)    (FT/S) (FT/S/D)
BUOY 41004       1950   81 83   60/  4/  6 1018.5F   2/ 8   2/ 8
BUOY 41008       1950   79 84   60/  8/  8 1018.8F   2/ 8   2/100/ 8
FOLLY BEACH CMAN 2000   82     160/  8/  9 1018.8F
CAPERS NEARSHORE 1908   83     160/  8/ 10 1019.1F
FRIPP NEARSHORE  1900   83     110/  4/  6 1018.8F


STATION/POSITION TIME  TEMP    WIND        PRES    WAVE   SWELL
                       AIR SEA DIR/SP/G            HT/PER HT/PER/DIR
                 (UTC) (F)     (DEG/KT/KT) (MB)    (FT/S) (FT/S/D)
5E ST. MARYS GA  1921      86                N/A     2/ 8
FRYING PAN BUOY  1950   81 83  310/  2/  2 1018.9F   2/ 7   2/140/ 7
BUOY 41025       1950   80 84  360/  6/  8 1017.0F   2/10   2/ 70/10
CAPE LOOKOUT NC  2000   82     230/  7/  9 1017.0F
BUOY 41002       1950   84 85  300/  4/  6 1018.0F   3/ 6   3/220/ 6
BUOY 41010       1920   85 87  220/  4/  6 1018.8F
ST AUGUSTINE FL  2000   83 87  130/ 11/ 12 1018.6S


$$



USA.gov is the U.S. government's official web portal to all federal, state and local government web resources and services.